Погода в Тюлячах

Россия / Республика Татарстан     55°53′25″N   50°14′13″E
темп.,
°C
ветер,
м/с
пор.,
м/с
влажн.,
%
обл.,
%
осадки,
мм/ч
давл.,
гПа
погр.,
м
18 апреля, вс
вс1800:00+4св36805 0.0 1024111
03:00+3св36823 0.0 1024102
06:00+3ссв37802 0.0 1024171
09:00+9св46555 0.0 1023655
12:00+12св67465 0.0 10231515
15:00+11св985478 0.0 10241377
18:00+7св69596 0.0 1026837
21:00+4всв712495 0.0 1027581
19 апреля, пн
пн1900:00+2всв7146193 0.0 1028565
03:000всв714616 0.0 1030524
06:000всв7145565 0.0 1030655
09:00+3в91240100 0.0 10311199
12:00+6в9113392 0.0 10311500
15:00+7в8102944 0.0 10301633
18:00+5в611370 0.0 1031641
21:00+2в614440 0.0 1032429
20 апреля, вт
вт2000:000в614510 0.0 1033353
03:00−1в511530 0.0 1034269
06:000в511540 0.0 1034323
09:00+5вюв78330 0.0 10351042
12:00+8вюв68300 0.0 10341331
15:00+9вюв67290 0.0 10331362
18:00+6в49410 0.0 1031245
21:00+3вюв411553 0.0 1032199
21 апреля, ср
ср2100:00+2вюв51256100 0.0 1032213
03:00+1вюв5125873 0.0 1032232
06:00+2юв51455100 0.0 1031430
09:00+7юв91334100 0.0 1030879
12:00+10ююв91228100 0.0 10291297
15:00+12ююв81230100 0.0 10281442
18:00+9ююв71338100 0.0 1027552
21:00+7ю61246100 0.0 1028544
22 апреля, чт
чт2200:00+6ю71468100 0.0 1028818
03:00+5ююв71482100 0.1 1028663
06:00+5ююв61288100 0.0 1029628
09:00+5ююв61190100 0.0 1030697
12:00+6ююв61089100 0.1 1030608
15:00+5ююв61193100 1.1 1031599
18:00+4ю61095100 1.3 1031619
21:00+5ю51189100 1.3 1031490